sat.trackr.live / text

‹ back to catalog

STARLINK-11471 [DTC]

NORAD 62225 · 2024-231H

PAYLOAD ACTIVE UNKNOWN

§ Identity

Operator
Country
US
Launch date
2024-12-05
Launch site
AFWTR
Launch vehicle
Mass (kg)
RCS (m²)

Purposes: comms

External: N2YO · Heavens-Above · Gunter

§ Orbital elements

Epoch: 2026-09-21T06:38:44.687904Z

Period
91.73 min
Inclination
53.1569°
Eccentricity
0.0000759
Mean motion
15.69768969 rev/d
Perigee alt
359.0 km
Apogee alt
360.1 km
Semi-major
6,737.7 km
B*
9.5599e-4
RAAN
216.8864°
Arg perigee
84.4259°
Mean anomaly
275.6846°
Rev number
10,413

§ Raw data

STARLINK-11471 [DTC]1 62225U 24231H   26264.27690611  .00117163  00000+0  95599-3 0  99992 62225  53.1569 216.8864 0000759  84.4259 275.6846 15.69768969104139

JSON: /api/v1/satellites/62225 · /tle

For live sub-satellite position, see the globe view (requires WebGL).

§ Visibility from observer

Set your observer location to see the next 7 days of passes ≥ 10°. The values pass through the URL so the page stays shareable.

No JS? Fill the form by hand. The geolocation button needs JavaScript.